Overview Statistics Trail Chart Weather Telemetry Raw packets
 

This is the latest recevied weather packets stored in our database for station/object DJ2KUA-6. If no packets are shown the sender has not sent any weather packets the latest 10 day(s).

<< 1 2 3 4 5 6 >>
Time Temp. Humidity Pressure Rain* Wind** Luminosity Snow
1788595494 22.78° C 74% 1074 hPa 0 mm - - -
1788594355 21.11° C 78% 1074 hPa 0 mm - - -
1788593214 20° C 80% 1074 hPa 0 mm - - -
1788592074 18.89° C 82% 1074 hPa 0 mm - - -
1788590933 18.89° C 82% 1074 hPa 0 mm - - -
1788589794 18.33° C 83% 1073 hPa 0 mm - - -
1788588653 18.33° C 83% 1073 hPa 0 mm - - -
1788586373 17.22° C 85% 1073 hPa 0 mm - - -
1788585233 17.78° C 84% 1073 hPa 0 mm - - -
1788584094 17.78° C 85% 1072 hPa 0 mm - - -
1788582993 18.33° C 85% 1072 hPa 0 mm - - -
1788582952 18.33° C 85% 1072 hPa 0 mm - - -
1788581824 18.33° C 86% 1072 hPa 0 mm - - -
1788579533 18.33° C 86% 1071 hPa 0 mm - - -
1788578393 18.33° C 85% 1071 hPa 0 mm - - -
1788577253 18.89° C 85% 1071 hPa 0 mm - - -
1788576136 18.89° C 85% 1071 hPa 0 mm - - -
1788574975 18.89° C 85% 1071 hPa 0.51 mm - - -
1788573835 18.89° C 85% 1071 hPa 2.03 mm - - -
1788572695 18.89° C 85% 1071 hPa 2.03 mm - - -
1788571555 19.44° C 84% 1071 hPa 1.52 mm - - -
1788570415 19.44° C 83% 1071 hPa 1.02 mm - - -
1788569275 19.44° C 82% 1070 hPa 1.02 mm - - -
1788568135 19.44° C 80% 1070 hPa 1.02 mm - - -
1788566995 21.11° C 72% 1070 hPa 0 mm - - -

* Rain latest hour (hover to see other rain measurements)
** Current wind speed in m/s (hover to see current wind gust speed)